Location: Adair
(33.3137°N, 90.0906°W)
Time: 07:54:00
(UTC+00:00)

Envisat - Visible Passes

Search period start: 21 May 2026 00:00
Search period end: 31 May 2026 00:00
Orbit: 761 x 762 km, 98.4° (Epoch: 20 May)

Date Brightness Start Highest point End Pass type
(mag) Time Alt. Az. Time Alt. Az. Time Alt. Az.
21 May 2.9 08:29:46 10° NNE 08:34:51 81° ESE 08:35:40 63° S visible
22 May 4.2 07:52:28 10° NE 07:56:58 32° E 07:57:27 31° ESE visible
22 May 4.3 09:31:41 10° NNW 09:35:41 24° WNW 09:37:34 19° W visible
23 May 5.4 07:16:45 10° ENE 07:18:53 13° E 07:19:13 13° E visible
23 May 3.1 08:53:08 10° N 08:58:06 58° WNW 08:59:20 45° WSW visible
24 May 3.3 08:15:21 10° NNE 08:20:20 57° E 08:21:07 51° SE visible
24 May 4.9 09:56:09 10° NW 09:58:43 14° WNW 10:01:14 10° W visible
25 May 4.7 07:38:25 10° NE 07:42:22 23° E 07:42:53 22° ESE visible
25 May 3.9 09:16:46 10° N 09:21:17 33° WNW 09:23:00 26° WSW visible
26 May 2.9 08:38:33 10° N 08:43:37 82° WNW 08:44:46 55° SSW visible
27 May 3.9 08:01:02 10° NNE 08:05:46 39° E 08:06:32 37° ESE visible
27 May 4.5 09:40:48 10° NNW 09:44:22 20° WNW 09:46:39 15° W visible
28 May 5.2 07:24:41 10° NE 07:27:45 16° E 07:28:18 16° ESE visible
28 May 3.4 09:02:00 10° N 09:06:50 46° WNW 09:08:25 35° WSW visible
29 May 3.1 08:24:03 10° NNE 08:29:07 71° ESE 08:30:11 54° SSE visible
29 May 5.0 10:05:53 10° NW 10:07:22 11° WNW 10:08:51 10° W visible
30 May 4.4 07:46:53 10° NE 07:51:12 28° E 07:51:56 27° ESE visible
30 May 4.1 09:25:46 10° NNW 09:29:58 27° WNW 09:32:04 20° WSW visible
